| time (UTC) | temp F | wind direction | speed MPH | gust MPH | rain 1hr in | rain 24hr in | rain mn in | humidity % | barometer mb |
| 20260505140212 | 44 | 20 | 3.0 | 5.0 | 0.00 | 0.00 | 0.00 | 44 | 1010.7 |
| 20260505130136 | 40 | 247 | 2.0 | 2.0 | 0.00 | 0.00 | 0.00 | 47 | 1010.4 |
| 20260505124625 | 40 | 179 | 2.0 | 3.0 | 0.00 | 0.00 | 0.00 | 49 | 1010.1 |
| 20260505124121 | 40 | 14 | 5.0 | 9.0 | 0.00 | 0.00 | 0.00 | 49 | 1010.0 |
| 20260505123617 | 40 | 166 | 5.0 | 7.0 | 0.00 | 0.00 | 0.00 | 51 | 1010.1 |
| 20260505123114 | 40 | 60 | 4.0 | 5.0 | 0.00 | 0.00 | 0.00 | 52 | 1009.9 |
| 20260505122611 | 40 | 14 | 8.0 | 12.0 | 0.00 | 0.00 | 0.00 | 51 | 1009.8 |
| 20260505122108 | 39 | 48 | 6.0 | 10.0 | 0.00 | 0.00 | 0.00 | 54 | 1009.7 |
| 20260505121604 | 39 | 163 | 1.0 | 2.0 | 0.00 | 0.00 | 0.00 | 54 | 1009.6 |
| 20260505121101 | 39 | 17 | 2.0 | 3.0 | 0.00 | 0.00 | 0.00 | 54 | 1009.6 |
| 20260505120557 | 39 | 193 | 1.0 | 2.0 | 0.00 | 0.00 | 0.00 | 56 | 1009.6 |
| 20260505120053 | 39 | 268 | 2.0 | 5.0 | 0.00 | 0.00 | 0.00 | 57 | 1009.4 |
| 20260505115547 | 38 | 185 | 1.0 | 2.0 | 0.00 | 0.00 | 0.00 | 58 | 1009.2 |
| 20260505115045 | 38 | 168 | 1.0 | 3.0 | 0.00 | 0.00 | 0.00 | 58 | 1009.3 |
| 20260505114542 | 38 | 211 | 1.0 | 2.0 | 0.00 | 0.00 | 0.00 | 60 | 1009.0 |
| 20260505114038 | 38 | 291 | 5.0 | 7.0 | 0.00 | 0.00 | 0.00 | 61 | 1008.9 |
| 20260505113535 | 38 | 165 | 0.0 | 0.0 | 0.00 | 0.00 | 0.00 | 61 | 1009.0 |
| 20260505113032 | 38 | 171 | 0.0 | 0.0 | 0.00 | 0.00 | 0.00 | 62 | 1009.0 |
| 20260505112528 | 38 | 200 | 2.0 | 5.0 | 0.00 | 0.00 | 0.00 | 62 | 1008.7 |
| 20260505112027 | 38 | 187 | 0.0 | 0.0 | 0.00 | 0.00 | 0.00 | 63 | 1008.8 |
| 20260505111525 | 38 | 231 | 2.0 | 2.0 | 0.00 | 0.00 | 0.00 | 64 | 1008.6 |
| 20260505111022 | 38 | 182 | 2.0 | 2.0 | 0.00 | 0.00 | 0.00 | 64 | 1008.7 |
| 20260505110519 | 38 | 199 | 2.0 | 2.0 | 0.00 | 0.00 | 0.00 | 64 | 1008.6 |
| 20260505101951 | 39 | 296 | 3.0 | 5.0 | 0.00 | 0.00 | 0.00 | 63 | 1008.5 |
| 20260505101449 | 39 | 321 | 2.0 | 2.0 | 0.00 | 0.00 | 0.00 | 63 | 1008.4 |
| 20260505100945 | 39 | 173 | 0.0 | 0.0 | 0.00 | 0.00 | 0.00 | 63 | 1008.4 |
| 20260505100443 | 39 | 158 | 0.0 | 0.0 | 0.00 | 0.00 | 0.00 | 63 | 1008.3 |
| 20260505095939 | 39 | 188 | 3.0 | 5.0 | 0.00 | 0.00 | 0.00 | 62 | 1008.3 |
| 20260505095436 | 39 | 219 | 0.0 | 0.0 | 0.00 | 0.00 | 0.00 | 62 | 1008.3 |
| 20260505094932 | 39 | 269 | 2.0 | 3.0 | 0.00 | 0.00 | 0.00 | 62 | 1008.2 |
| 20260505094429 | 40 | 157 | 0.0 | 0.0 | 0.00 | 0.00 | 0.00 | 62 | 1008.1 |
| 20260505093925 | 40 | 193 | 1.0 | 2.0 | 0.00 | 0.00 | 0.00 | 61 | 1008.3 |
| 20260505093422 | 40 | 284 | 1.0 | 2.0 | 0.00 | 0.00 | 0.00 | 61 | 1008.2 |
| 20260505092919 | 40 | 194 | 1.0 | 2.0 | 0.00 | 0.00 | 0.00 | 61 | 1008.0 |
| 20260505092417 | 40 | 242 | 1.0 | 2.0 | 0.00 | 0.00 | 0.00 | 60 | 1008.2 |
| 20260505091914 | 40 | 140 | 3.0 | 3.0 | 0.00 | 0.00 | 0.00 | 60 | 1007.9 |
| 20260505091412 | 40 | 325 | 4.0 | 5.0 | 0.00 | 0.00 | 0.00 | 60 | 1008.0 |
| 20260505090909 | 40 | 170 | 0.0 | 0.0 | 0.00 | 0.00 | 0.00 | 60 | 1007.8 |
| 20260505090408 | 40 | 184 | 1.0 | 2.0 | 0.00 | 0.00 | 0.00 | 60 | 1007.9 |
| 20260505085904 | 40 | 223 | 0.0 | 2.0 | 0.00 | 0.00 | 0.00 | 59 | 1007.9 |
| 20260505085402 | 40 | 168 | 2.0 | 3.0 | 0.00 | 0.00 | 0.00 | 58 | 1007.8 |
| 20260505084900 | 40 | 242 | 1.0 | 2.0 | 0.00 | 0.00 | 0.00 | 58 | 1007.8 |
| 20260505084358 | 40 | 164 | 0.0 | 0.0 | 0.00 | 0.00 | 0.00 | 58 | 1007.6 |
| 20260505083856 | 40 | 290 | 3.0 | 5.0 | 0.00 | 0.00 | 0.00 | 58 | 1007.5 |
| 20260505083353 | 41 | 177 | 0.0 | 0.0 | 0.00 | 0.00 | 0.00 | 57 | 1007.6 |
| 20260505082849 | 41 | 320 | 4.0 | 5.0 | 0.00 | 0.00 | 0.00 | 56 | 1007.4 |
| 20260505082345 | 41 | 139 | 2.0 | 3.0 | 0.00 | 0.00 | 0.00 | 56 | 1007.4 |
| 20260505081842 | 41 | 128 | 2.0 | 2.0 | 0.00 | 0.00 | 0.00 | 56 | 1007.4 |
| 20260505081339 | 41 | 173 | 2.0 | 2.0 | 0.00 | 0.00 | 0.00 | 56 | 1007.3 |
| 20260505080836 | 41 | 196 | 1.0 | 2.0 | 0.00 | 0.00 | 0.00 | 56 | 1007.3 |
| 20260505080331 | 41 | 190 | 2.0 | 2.0 | 0.00 | 0.00 | 0.00 | 56 | 1007.0 |
| 20260505075827 | 41 | 166 | 2.0 | 3.0 | 0.00 | 0.00 | 0.00 | 56 | 1007.1 |
| 20260505075324 | 41 | 212 | 2.0 | 3.0 | 0.00 | 0.00 | 0.00 | 56 | 1007.0 |
| 20260505074822 | 41 | 208 | 2.0 | 2.0 | 0.00 | 0.00 | 0.00 | 56 | 1006.9 |
| 20260505074319 | 42 | 198 | 1.0 | 2.0 | 0.00 | 0.00 | 0.00 | 55 | 1007.2 |
| 20260505073816 | 42 | 248 | 2.0 | 5.0 | 0.00 | 0.00 | 0.00 | 54 | 1007.1 |
| 20260505073314 | 42 | 304 | 2.0 | 3.0 | 0.00 | 0.00 | 0.00 | 54 | 1007.2 |
| 20260505072811 | 42 | 233 | 2.0 | 3.0 | 0.00 | 0.00 | 0.00 | 54 | 1007.0 |
| 20260505072307 | 42 | 171 | 1.0 | 2.0 | 0.00 | 0.00 | 0.00 | 55 | 1007.1 |
| 20260505071802 | 42 | 175 | 0.0 | 0.0 | 0.00 | 0.00 | 0.00 | 55 | 1007.2 |
| 20260505071259 | 42 | 226 | 2.0 | 2.0 | 0.00 | 0.00 | 0.00 | 54 | 1007.1 |
| 20260505070757 | 42 | 244 | 1.0 | 2.0 | 0.00 | 0.00 | 0.00 | 54 | 1007.2 |
| 20260505070254 | 42 | 121 | 2.0 | 2.0 | 0.00 | 0.00 | 0.00 | 54 | 1007.2 |
| 20260505065748 | 42 | 175 | 0.0 | 0.0 | 0.00 | 0.00 | 0.00 | 54 | 1007.2 |
| 20260505065246 | 42 | 185 | 2.0 | 3.0 | 0.00 | 0.00 | 0.00 | 54 | 1007.3 |
| 20260505064743 | 42 | 210 | 4.0 | 5.0 | 0.00 | 0.00 | 0.00 | 54 | 1007.3 |
| 20260505064240 | 43 | 176 | 2.0 | 3.0 | 0.00 | 0.00 | 0.00 | 54 | 1007.1 |
| 20260505063738 | 43 | 173 | 0.0 | 0.0 | 0.00 | 0.00 | 0.00 | 55 | 1007.0 |
| 20260505063234 | 43 | 277 | 4.0 | 5.0 | 0.00 | 0.00 | 0.00 | 54 | 1007.1 |
| 20260505062730 | 43 | 245 | 2.0 | 3.0 | 0.00 | 0.00 | 0.00 | 54 | 1007.3 |
| 20260505062228 | 43 | 259 | 0.0 | 2.0 | 0.00 | 0.00 | 0.00 | 55 | 1007.2 |
| 20260505061725 | 43 | 321 | 3.0 | 5.0 | 0.00 | 0.00 | 0.00 | 55 | 1007.2 |
| 20260505061223 | 43 | 194 | 1.0 | 2.0 | 0.00 | 0.00 | 0.00 | 55 | 1007.2 |
| 20260505060720 | 43 | 3 | 2.0 | 3.0 | 0.00 | 0.00 | 0.00 | 55 | 1007.3 |
| 20260505060217 | 43 | 152 | 3.0 | 5.0 | 0.00 | 0.00 | 0.00 | 55 | 1007.3 |
| 20260505055712 | 43 | 89 | 0.0 | 2.0 | 0.00 | 0.00 | 0.00 | 56 | 1007.3 |
| 20260505055209 | 42 | 183 | 0.0 | 0.0 | 0.00 | 0.00 | 0.00 | 57 | 1007.2 |
| 20260505054706 | 42 | 164 | 1.0 | 2.0 | 0.00 | 0.00 | 0.00 | 58 | 1006.9 |
| 20260505054204 | 42 | 170 | 0.0 | 0.0 | 0.00 | 0.00 | 0.00 | 57 | 1007.1 |
| 20260505053702 | 43 | 171 | 0.0 | 0.0 | 0.00 | 0.00 | 0.00 | 56 | 1006.9 |
| 20260505053158 | 43 | 172 | 0.0 | 0.0 | 0.00 | 0.00 | 0.00 | 56 | 1007.0 |
| 20260505052655 | 43 | 243 | 2.0 | 2.0 | 0.00 | 0.00 | 0.00 | 56 | 1007.0 |
| 20260505052152 | 43 | 291 | 2.0 | 3.0 | 0.00 | 0.00 | 0.00 | 56 | 1006.9 |
| 20260505051649 | 43 | 233 | 0.0 | 0.0 | 0.00 | 0.00 | 0.00 | 57 | 1006.8 |
| 20260505051147 | 43 | 178 | 0.0 | 0.0 | 0.00 | 0.00 | 0.00 | 56 | 1006.9 |
| 20260505050645 | 43 | 174 | 0.0 | 0.0 | 0.00 | 0.00 | 0.00 | 55 | 1006.7 |
| 20260505050143 | 43 | 184 | 0.0 | 0.0 | 0.00 | 0.00 | 0.00 | 55 | 1007.0 |
| 20260505041612 | 43 | 170 | 0.0 | 0.0 | 0.00 | 0.00 | 0.00 | 55 | 1006.7 |
| 20260505041110 | 43 | 139 | 0.0 | 0.0 | 0.00 | 0.00 | 0.00 | 55 | 1006.6 |
| 20260505040607 | 44 | 173 | 0.0 | 0.0 | 0.00 | 0.00 | 0.00 | 54 | 1006.6 |
| 20260505040104 | 44 | 173 | 0.0 | 0.0 | 0.00 | 0.00 | 0.00 | 54 | 1006.6 |
| 20260505035600 | 44 | 168 | 0.0 | 0.0 | 0.00 | 0.00 | 0.00 | 53 | 1006.7 |
| 20260505035057 | 44 | 179 | 0.0 | 0.0 | 0.00 | 0.00 | 0.00 | 52 | 1006.7 |
| 20260505034553 | 44 | 174 | 0.0 | 0.0 | 0.00 | 0.00 | 0.00 | 52 | 1006.5 |
| 20260505034050 | 45 | 171 | 0.0 | 0.0 | 0.00 | 0.00 | 0.00 | 51 | 1006.5 |
| 20260505033547 | 45 | 178 | 0.0 | 0.0 | 0.00 | 0.00 | 0.00 | 51 | 1006.4 |
| 20260505033045 | 44 | 150 | 0.0 | 0.0 | 0.00 | 0.00 | 0.00 | 50 | 1006.5 |
| 20260505032543 | 45 | 161 | 0.0 | 0.0 | 0.00 | 0.00 | 0.00 | 51 | 1006.6 |
| 20260505032039 | 45 | 175 | 0.0 | 0.0 | 0.00 | 0.00 | 0.00 | 50 | 1006.5 |
| 20260505031537 | 45 | 147 | 1.0 | 3.0 | 0.00 | 0.00 | 0.00 | 50 | 1006.7 |
| 20260505031033 | 45 | 215 | 1.0 | 2.0 | 0.00 | 0.00 | 0.00 | 50 | 1006.5 |
| 20260505030530 | 45 | 168 | 0.0 | 0.0 | 0.00 | 0.00 | 0.00 | 50 | 1006.6 |
| 20260505030026 | 46 | 166 | 0.0 | 0.0 | 0.00 | 0.00 | 0.00 | 49 | 1006.4 |
| 20260505025522 | 46 | 164 | 0.0 | 0.0 | 0.00 | 0.00 | 0.00 | 49 | 1006.4 |
| 20260505025021 | 46 | 181 | 0.0 | 0.0 | 0.00 | 0.00 | 0.00 | 49 | 1006.5 |
| 20260505024518 | 45 | 158 | 0.0 | 0.0 | 0.00 | 0.00 | 0.00 | 49 | 1006.5 |
| 20260505024015 | 45 | 154 | 0.0 | 0.0 | 0.00 | 0.00 | 0.00 | 48 | 1006.3 |
| 20260505023511 | 45 | 155 | 0.0 | 2.0 | 0.00 | 0.00 | 0.00 | 48 | 1006.3 |
| 20260505023009 | 46 | 173 | 0.0 | 0.0 | 0.00 | 0.00 | 0.00 | 48 | 1006.3 |
| 20260505022507 | 46 | 161 | 0.0 | 0.0 | 0.00 | 0.00 | 0.00 | 48 | 1006.2 |
| 20260505022004 | 46 | 168 | 0.0 | 0.0 | 0.00 | 0.00 | 0.00 | 46 | 1006.0 |
| 20260505021500 | 47 | 224 | 2.0 | 2.0 | 0.00 | 0.00 | 0.00 | 46 | 1005.9 |
| 20260505020955 | 47 | 170 | 1.0 | 2.0 | 0.00 | 0.00 | 0.00 | 45 | 1005.8 |
| 20260505020451 | 47 | 179 | 0.0 | 0.0 | 0.00 | 0.00 | 0.00 | 45 | 1005.8 |
| 20260505015948 | 48 | 195 | 1.0 | 2.0 | 0.00 | 0.00 | 0.00 | 44 | 1005.7 |
| 20260505015446 | 48 | 160 | 0.0 | 2.0 | 0.00 | 0.00 | 0.00 | 43 | 1005.8 |
| 20260505014942 | 48 | 254 | 2.0 | 3.0 | 0.00 | 0.00 | 0.00 | 43 | 1005.6 |
| 20260505014439 | 48 | 352 | 2.0 | 5.0 | 0.00 | 0.00 | 0.00 | 42 | 1005.8 |
| 20260505013937 | 49 | 338 | 7.0 | 10.0 | 0.00 | 0.00 | 0.00 | 42 | 1005.7 |
| 20260505013434 | 49 | 39 | 10.0 | 12.0 | 0.00 | 0.00 | 0.00 | 42 | 1005.7 |
| 20260505012931 | 49 | 220 | 6.0 | 10.0 | 0.00 | 0.00 | 0.00 | 42 | 1005.6 |
| 20260505012429 | 49 | 157 | 1.0 | 2.0 | 0.00 | 0.00 | 0.00 | 44 | 1005.5 |
| 20260505011925 | 49 | 332 | 3.0 | 5.0 | 0.00 | 0.00 | 0.00 | 43 | 1005.4 |
| 20260505011421 | 50 | 201 | 1.0 | 2.0 | 0.00 | 0.00 | 0.00 | 43 | 1005.3 |
| 20260505010918 | 50 | 204 | 6.0 | 9.0 | 0.00 | 0.00 | 0.00 | 43 | 1005.2 |
| 20260505010414 | 50 | 239 | 7.0 | 14.0 | 0.00 | 0.00 | 0.00 | 42 | 1004.9 |
| 20260505005910 | 50 | 319 | 6.0 | 9.0 | 0.00 | 0.00 | 0.00 | 42 | 1005.2 |
| 20260505005407 | 51 | 349 | 3.0 | 3.0 | 0.00 | 0.00 | 0.00 | 42 | 1004.6 |
| 20260505004905 | 51 | 196 | 6.0 | 12.0 | 0.00 | 0.00 | 0.00 | 41 | 1004.7 |
| 20260505004401 | 51 | 231 | 6.0 | 7.0 | 0.00 | 0.00 | 0.00 | 42 | 1004.6 |
| 20260505003858 | 51 | 31 | 8.0 | 12.0 | 0.00 | 0.00 | 0.00 | 41 | 1004.6 |
| 20260505003355 | 52 | 294 | 5.0 | 9.0 | 0.00 | 0.00 | 0.00 | 41 | 1004.4 |
| 20260505002852 | 52 | 193 | 2.0 | 3.0 | 0.00 | 0.00 | 0.00 | 41 | 1004.5 |
| 20260505002348 | 53 | 246 | 4.0 | 7.0 | 0.00 | 0.00 | 0.00 | 40 | 1004.4 |
| 20260505001847 | 53 | 327 | 4.0 | 5.0 | 0.00 | 0.00 | 0.00 | 39 | 1004.3 |
| 20260505001344 | 53 | 154 | 9.0 | 14.0 | 0.00 | 0.00 | 0.00 | 39 | 1004.0 |
| 20260505000841 | 53 | 257 | 4.0 | 5.0 | 0.00 | 0.00 | 0.00 | 39 | 1004.1 |
| 20260505000338 | 53 | 304 | 2.0 | 3.0 | 0.00 | 0.00 | 0.00 | 40 | 1004.1 |
| 20260504235835 | 53 | 41 | 2.0 | 3.0 | 0.00 | 0.00 | 0.00 | 40 | 1004.0 |
| 20260504235332 | 53 | 341 | 7.0 | 12.0 | 0.00 | 0.00 | 0.00 | 39 | 1004.0 |
| 20260504234828 | 53 | 37 | 7.0 | 9.0 | 0.00 | 0.00 | 0.00 | 39 | 1003.7 |
| 20260504234326 | 54 | 274 | 10.0 | 14.0 | 0.00 | 0.00 | 0.00 | 38 | 1003.8 |
| 20260504233822 | 54 | 334 | 6.0 | 9.0 | 0.00 | 0.00 | 0.00 | 39 | 1003.8 |
| 20260504233318 | 54 | 227 | 0.0 | 2.0 | 0.00 | 0.00 | 0.00 | 39 | 1003.6 |
| 20260504232815 | 54 | 348 | 2.0 | 3.0 | 0.00 | 0.00 | 0.00 | 38 | 1003.6 |
| 20260504232312 | 54 | 194 | 3.0 | 3.0 | 0.00 | 0.00 | 0.00 | 38 | 1003.4 |
| 20260504231809 | 55 | 290 | 4.0 | 5.0 | 0.00 | 0.00 | 0.00 | 39 | 1003.5 |
| 20260504231306 | 54 | 132 | 7.0 | 10.0 | 0.00 | 0.00 | 0.00 | 39 | 1003.5 |
| 20260504230802 | 54 | 229 | 3.0 | 5.0 | 0.00 | 0.00 | 0.00 | 40 | 1003.5 |
| 20260504230300 | 55 | 335 | 6.0 | 9.0 | 0.00 | 0.00 | 0.00 | 39 | 1003.4 |
| 20260504225758 | 55 | 145 | 2.0 | 2.0 | 0.00 | 0.00 | 0.00 | 40 | 1003.5 |
| 20260504225254 | 55 | 236 | 2.0 | 2.0 | 0.00 | 0.00 | 0.00 | 40 | 1003.4 |
| 20260504224752 | 55 | 223 | 9.0 | 12.0 | 0.00 | 0.00 | 0.00 | 39 | 1003.4 |
| 20260504224249 | 56 | 289 | 5.0 | 7.0 | 0.00 | 0.00 | 0.00 | 39 | 1003.1 |
| 20260504223745 | 56 | 232 | 7.0 | 12.0 | 0.00 | 0.00 | 0.00 | 39 | 1003.0 |
| 20260504223241 | 57 | 350 | 4.0 | 7.0 | 0.00 | 0.00 | 0.00 | 40 | 1002.9 |
| 20260504222738 | 56 | 76 | 4.0 | 5.0 | 0.00 | 0.00 | 0.00 | 40 | 1002.7 |
| 20260504222234 | 57 | 353 | 5.0 | 7.0 | 0.00 | 0.00 | 0.00 | 40 | 1002.7 |
| 20260504221732 | 58 | 347 | 6.0 | 9.0 | 0.00 | 0.00 | 0.00 | 38 | 1002.7 |
| 20260504221229 | 58 | 282 | 4.0 | 7.0 | 0.00 | 0.00 | 0.00 | 40 | 1002.3 |
| 20260504220725 | 59 | 282 | 9.0 | 14.0 | 0.00 | 0.00 | 0.00 | 38 | 1002.5 |
| 20260504220223 | 58 | 236 | 2.0 | 3.0 | 0.00 | 0.00 | 0.00 | 40 | 1002.4 |
| 20260504215720 | 58 | 31 | 2.0 | 5.0 | 0.00 | 0.00 | 0.00 | 40 | 1002.3 |
| 20260504215217 | 59 | 329 | 9.0 | 12.0 | 0.00 | 0.00 | 0.00 | 37 | 1002.1 |
| 20260504214712 | 59 | 314 | 4.0 | 5.0 | 0.00 | 0.00 | 0.00 | 38 | 1002.2 |
| 20260504214209 | 58 | 336 | 7.0 | 12.0 | 0.00 | 0.00 | 0.00 | 39 | 1001.9 |
| 20260504213706 | 57 | 143 | 4.0 | 5.0 | 0.00 | 0.00 | 0.00 | 39 | 1001.8 |
| 20260504213202 | 58 | 71 | 6.0 | 10.0 | 0.00 | 0.00 | 0.00 | 39 | 1001.7 |
| 20260504212659 | 58 | 22 | 6.0 | 12.0 | 0.00 | 0.00 | 0.00 | 38 | 1001.7 |
| 20260504212156 | 61 | 187 | 7.0 | 14.0 | 0.00 | 0.00 | 0.00 | 36 | 1001.8 |
| 20260504211653 | 61 | 252 | 7.0 | 14.0 | 0.00 | 0.00 | 0.00 | 37 | 1001.6 |
| 20260504211149 | 61 | 343 | 6.0 | 19.0 | 0.00 | 0.00 | 0.00 | 36 | 1001.7 |
| 20260504210647 | 60 | 204 | 3.0 | 3.0 | 0.00 | 0.00 | 0.00 | 37 | 1001.7 |
| 20260504210143 | 60 | 0 | 9.0 | 12.0 | 0.00 | 0.00 | 0.00 | 37 | 1001.6 |
| 20260504205641 | 62 | 233 | 2.0 | 2.0 | 0.00 | 0.00 | 0.00 | 38 | 1001.5 |
| 20260504205138 | 61 | 283 | 5.0 | 9.0 | 0.00 | 0.00 | 0.00 | 36 | 1001.7 |
| 20260504204637 | 61 | 275 | 11.0 | 17.0 | 0.00 | 0.00 | 0.00 | 37 | 1001.4 |
| 20260504204135 | 61 | 311 | 7.0 | 14.0 | 0.00 | 0.00 | 0.00 | 37 | 1001.6 |
| 20260504203634 | 61 | 196 | 3.0 | 5.0 | 0.00 | 0.00 | 0.00 | 37 | 1001.5 |
| 20260504203131 | 63 | 300 | 9.0 | 12.0 | 0.00 | 0.00 | 0.00 | 36 | 1001.3 |
| 20260504202631 | 63 | 65 | 4.0 | 5.0 | 0.00 | 0.00 | 0.00 | 36 | 1001.3 |
| 20260504202128 | 64 | 91 | 8.0 | 12.0 | 0.00 | 0.00 | 0.00 | 35 | 1001.1 |
| 20260504201625 | 64 | 289 | 5.0 | 7.0 | 0.00 | 0.00 | 0.00 | 36 | 1001.0 |
| 20260504201123 | 64 | 312 | 6.0 | 10.0 | 0.00 | 0.00 | 0.00 | 36 | 1001.0 |
| 20260504200620 | 64 | 301 | 5.0 | 7.0 | 0.00 | 0.00 | 0.00 | 38 | 1001.0 |
| 20260504200116 | 63 | 31 | 3.0 | 5.0 | 0.00 | 0.00 | 0.00 | 37 | 1000.8 |
| 20260504195612 | 62 | 106 | 6.0 | 9.0 | 0.00 | 0.00 | 0.00 | 37 | 1000.9 |
| 20260504195108 | 62 | 278 | 5.0 | 9.0 | 0.00 | 0.00 | 0.00 | 38 | 1000.7 |
| 20260504194605 | 63 | 18 | 6.0 | 9.0 | 0.00 | 0.00 | 0.00 | 38 | 1000.9 |
| 20260504194101 | 63 | 66 | 3.0 | 3.0 | 0.00 | 0.00 | 0.00 | 38 | 1000.8 |
| 20260504193558 | 62 | 150 | 4.0 | 7.0 | 0.00 | 0.00 | 0.00 | 40 | 1000.7 |
| 20260504193056 | 61 | 344 | 8.0 | 12.0 | 0.00 | 0.00 | 0.00 | 38 | 1000.7 |
| 20260504192554 | 62 | 290 | 6.0 | 14.0 | 0.00 | 0.00 | 0.00 | 39 | 1000.6 |
| 20260504192052 | 63 | 334 | 7.0 | 12.0 | 0.00 | 0.00 | 0.00 | 38 | 1000.4 |
| 20260504191550 | 63 | 292 | 6.0 | 7.0 | 0.00 | 0.00 | 0.00 | 39 | 1000.6 |
| 20260504191046 | 63 | 327 | 5.0 | 7.0 | 0.00 | 0.00 | 0.00 | 38 | 1000.3 |
| 20260504190542 | 62 | 141 | 4.0 | 5.0 | 0.00 | 0.00 | 0.00 | 41 | 1000.2 |
| 20260504190038 | 62 | 312 | 8.0 | 15.0 | 0.00 | 0.00 | 0.00 | 38 | 1000.4 |
| 20260504185536 | 62 | 39 | 5.0 | 10.0 | 0.00 | 0.00 | 0.00 | 39 | 1000.4 |
| 20260504185032 | 62 | 240 | 7.0 | 10.0 | 0.00 | 0.00 | 0.00 | 37 | 1000.2 |
| 20260504184527 | 62 | 223 | 5.0 | 7.0 | 0.00 | 0.00 | 0.00 | 38 | 1000.0 |
| 20260504184023 | 63 | 277 | 5.0 | 9.0 | 0.00 | 0.00 | 0.00 | 36 | 1000.0 |
| 20260504183520 | 65 | 322 | 5.0 | 7.0 | 0.00 | 0.00 | 0.00 | 35 | 999.9 |
| 20260504183019 | 64 | 50 | 5.0 | 7.0 | 0.00 | 0.00 | 0.00 | 38 | 999.8 |
| 20260504182515 | 64 | 296 | 4.0 | 9.0 | 0.00 | 0.00 | 0.00 | 38 | 999.9 |
| 20260504182012 | 63 | 151 | 6.0 | 9.0 | 0.00 | 0.00 | 0.00 | 36 | 999.9 |
| 20260504181509 | 63 | 291 | 4.0 | 5.0 | 0.00 | 0.00 | 0.00 | 36 | 999.6 |
| 20260504181008 | 64 | 312 | 5.0 | 7.0 | 0.00 | 0.00 | 0.00 | 37 | 999.5 |
| 20260504180506 | 62 | 193 | 2.0 | 3.0 | 0.00 | 0.00 | 0.00 | 38 | 999.4 |
| 20260504180004 | 62 | 11 | 2.0 | 2.0 | 0.00 | 0.00 | 0.00 | 37 | 999.6 |
| 20260504175501 | 63 | 267 | 4.0 | 7.0 | 0.00 | 0.00 | 0.00 | 37 | 999.4 |
| 20260504174958 | 63 | 199 | 4.0 | 5.0 | 0.00 | 0.00 | 0.00 | 37 | 999.5 |
| 20260504174456 | 64 | 97 | 4.0 | 9.0 | 0.00 | 0.00 | 0.00 | 36 | 999.4 |
| 20260504173953 | 65 | 358 | 6.0 | 10.0 | 0.00 | 0.00 | 0.00 | 36 | 999.2 |
| 20260504173449 | 64 | 303 | 2.0 | 3.0 | 0.00 | 0.00 | 0.00 | 40 | 999.0 |
| 20260504172947 | 65 | 189 | 2.0 | 3.0 | 0.00 | 0.00 | 0.00 | 39 | 999.0 |
| 20260504172443 | 65 | 23 | 3.0 | 3.0 | 0.00 | 0.00 | 0.00 | 41 | 999.2 |
| 20260504171940 | 64 | 178 | 2.0 | 3.0 | 0.00 | 0.00 | 0.00 | 44 | 999.1 |
| 20260504171437 | 63 | 298 | 5.0 | 14.0 | 0.00 | 0.00 | 0.00 | 43 | 999.0 |
| 20260504170934 | 62 | 206 | 3.0 | 3.0 | 0.00 | 0.00 | 0.00 | 43 | 999.1 |
| 20260504170430 | 63 | 356 | 11.0 | 19.0 | 0.00 | 0.00 | 0.00 | 41 | 999.2 |
| 20260504160349 | 64 | 310 | 2.0 | 3.0 | 0.00 | 0.00 | 0.00 | 41 | 998.9 |
| 20260504150814 | 62 | 162 | 1.0 | 2.0 | 0.00 | 0.00 | 0.00 | 42 | 998.5 |
| 20260504150310 | 62 | 16 | 3.0 | 5.0 | 0.00 | 0.00 | 0.00 | 40 | 998.7 |